Location: Unspecified
(0.0000°N, 0.0000°E)
Time: 03:32:24
(UTC+00:00)

JUGNU - Pass Details

Date: 16 December 2017
Orbit: 837 x 864 km, 20.0° (Epoch: 16 January)

Event Time Altitude Azimuth Distance (km) Brightness Sun altitude
Rises 18:55:28 0° 226° (SW) 3,412 ? -13.7°
Reaches altitude 10° 18:59:01 10° 205° (SSW) 2,470 ? -14.5°
Maximum altitude 19:02:43 17° 167° (SSE) 2,024 ? -15.3°
Drops below altitude 10° 19:06:23 10° 128° (SE) 2,456 ? -16.1°
Enters shadow 19:07:27 - 120° (ESE) 2,705 ? -16.4°
